Showing default

TIANHUI 2-01B, 44209

Orbit data source: Space-Track

TIANHUI 2-01B, 44209 is a payload satellite owned by G. Cehui dili (CN) in SSO that was launched on Mon, 29 Apr 2019 UTC via a CHANG ZHENG 4B launch vehicle from the Taiyaun Space Center, China (TSC). Payload-class satellites include a variety of spacecraft equipped with specific instruments for various scientific and technological missions. These include communications satellites like Starlink; space stations such as the ISS; scientific satellites like the Hubble; Earth observation satellites from companies like Planet Labs, Umbra, and HawkEye 360; GPS; miniature CubeSats for education and research; and military/defense satellites.

Loading next visibility...
Identifier
44209, 2019-024C
Orbit
SSO
Country
Flag of CNCN / PRC
Related business
Manufacturer
SAST
Mission
Operational Civil Radar Imaging
Bus & Motor
CAST-2000?, Unknown motor
Mass
~1,000 kg wet, ~1,000 kg dry
Launch date (UTC)
2019-04-29 (6 years ago)
Launch vehicle
CHANG ZHENG 4B
Launch site
Taiyaun Space Center, China (TSC)
Object type
Payload
Rocket body
Debris
Shape & HBR
Box + 2 Pan, Unknown HBR
Radar Cross Section
2.045 m², Large (>1 m²)

Expand to show TLE details & history
Last TLE update: 2 days ago

TLE from 2 days ago
0 TIANHUI 2-01B
1 44209U 19024C   25260.82571665  .00002065  00000-0  10866-3 0  9997
2 44209  97.4792 263.4394 0001580  83.4042 276.7370 15.16748320353421
Epoch: 2025-09-17T19:49Z
TLE epoch observation values (Epoch: 2025-09-17T19:49:01.918Z)
Latitude
-0.00013°
Longitude
-30.81468°
Altitude
518.632 km
Speed
7.604 km/s
True Right ascension
17h 33m 45s
True Declination
0° 00' 00"
Sunlit
Object was in daylight at epoch
Visualization orbit readout
Latitude
Unknown
Longitude
Unknown
Altitude
Unknown
Speed
Unknown
Apparent Right ascension
Unknown
Apparent Declination
Unknown
Sunlit
N/A
Visualization observer readout
Local Sidereal Time
02:44:22
Azimuth
Unknown
Elevation
Unknown
Doppler factor
Unknown
Orbital elements
Apogee altitude
513.738 km
Perigee altitude
511.56 km
Semi-major axis
6,890.786 km
Eccentricity
0.00016
Inclination
97.4792°
RAAN
263.4394°
Arg. of periapsis
83.4042°
True anomaly
276.71902°
Mean anomaly
276.737°
Eccentric anomaly
276.72801°
Mean motion
3.79437 °/min
Orbital period
94.88 mins
BSTAR
0.00010866
Loading maneuver chart data...
Computing Atmospheric mass density...
Loading historical data...
Loading historical data...
Loading historical data...
Loading historical data...
Loading historical data...
Loading historical data...
Loading historical data...

Documentation

Showing up to 5 results
|